Time,TemperatureF,DewpointF,PressureIn,WindDirection,WindDirectionDegrees,WindSpeedMPH,WindSpeedGustMPH,Humidity,HourlyPrecipIn,Conditions,Clouds,dailyrainin,SoftwareType,DateUTC
2013-07-22 00:05:00,76.1,-31.2,29.72,SW,225,0.0,-999.0,1,-99.99,,,0.00,Acu-Link.com,2013-07-22 05:05:00,
2013-07-22 00:20:00,76.1,-31.2,29.72,SW,225,0.0,-999.0,1,-99.99,,,0.00,Acu-Link.com,2013-07-22 05:20:00,
2013-07-22 00:36:00,75.9,-31.3,29.71,South,180,2.2,-999.0,1,-99.99,,,0.00,Acu-Link.com,2013-07-22 05:36:00,
2013-07-22 00:51:00,75.9,-31.3,29.71,SSW,202,0.0,-999.0,1,-99.99,,,0.00,Acu-Link.com,2013-07-22 05:51:00,
2013-07-22 01:06:00,75.9,-31.3,29.70,South,180,0.0,-999.0,1,-99.99,,,0.00,Acu-Link.com,2013-07-22 06:06:00,
2013-07-22 01:21:00,75.6,-31.5,29.71,SE,135,0.0,-999.0,1,-99.99,,,0.00,Acu-Link.com,2013-07-22 06:21:00,
2013-07-22 01:37:00,75.9,-31.3,29.71,East,90,0.0,-999.0,1,-99.99,,,0.00,Acu-Link.com,2013-07-22 06:37:00,
2013-07-22 01:52:00,75.9,-31.3,29.71,South,180,0.0,-999.0,1,-99.99,,,0.00,Acu-Link.com,2013-07-22 06:52:00,
2013-07-22 02:07:00,75.6,-31.5,29.70,SW,225,0.0,-999.0,1,-99.99,,,0.00,Acu-Link.com,2013-07-22 07:07:00,
2013-07-22 02:23:00,75.7,-31.4,29.69,SW,225,0.0,-999.0,1,-99.99,,,0.00,Acu-Link.com,2013-07-22 07:23:00,
2013-07-22 02:38:00,75.6,-31.5,29.70,NNE,22,0.0,-999.0,1,-99.99,,,0.00,Acu-Link.com,2013-07-22 07:38:00,
2013-07-22 02:53:00,75.6,-31.5,29.69,East,90,0.0,-999.0,1,-99.99,,,0.00,Acu-Link.com,2013-07-22 07:53:00,
2013-07-22 03:08:00,75.4,-31.6,29.69,SSW,202,0.0,-999.0,1,-99.99,,,0.00,Acu-Link.com,2013-07-22 08:08:00,
2013-07-22 03:23:00,75.4,54.3,29.69,South,180,0.0,-999.0,48,-99.99,,,0.00,Acu-Link.com,2013-07-22 08:23:00,
2013-07-22 03:39:00,75.7,-31.4,29.69,South,180,0.0,-999.0,1,-99.99,,,0.00,Acu-Link.com,2013-07-22 08:39:00,
2013-07-22 03:54:00,75.6,21.3,29.70,ENE,67,0.0,-999.0,13,-99.99,,,0.00,Acu-Link.com,2013-07-22 08:54:00,
2013-07-22 04:09:00,75.6,-31.5,29.70,East,90,0.0,-999.0,1,-99.99,,,0.00,Acu-Link.com,2013-07-22 09:09:00,
2013-07-22 04:24:00,75.7,-31.4,29.69,SSW,202,0.0,-999.0,1,-99.99,,,0.00,Acu-Link.com,2013-07-22 09:24:00,
2013-07-22 04:39:00,75.7,-31.4,29.70,SSE,157,0.0,-999.0,1,-99.99,,,0.00,Acu-Link.com,2013-07-22 09:39:00,
2013-07-22 04:54:00,75.6,-31.5,29.69,WNW,292,0.0,-999.0,1,-99.99,,,0.00,Acu-Link.com,2013-07-22 09:54:00,
2013-07-22 05:10:00,75.7,-31.4,29.70,SSE,157,0.0,-999.0,1,-99.99,,,0.00,Acu-Link.com,2013-07-22 10:10:00,
2013-07-22 05:25:00,75.7,-31.4,29.71,SE,135,0.0,-999.0,1,-99.99,,,0.00,Acu-Link.com,2013-07-22 10:25:00,
2013-07-22 05:40:00,76.1,-31.2,29.71,South,180,0.0,-999.0,1,-99.99,,,0.00,Acu-Link.com,2013-07-22 10:40:00,
2013-07-22 05:56:00,75.9,-31.3,29.71,SSW,202,0.0,-999.0,1,-99.99,,,0.00,Acu-Link.com,2013-07-22 10:56:00,
2013-07-22 06:11:00,75.6,-31.5,29.71,ESE,112,0.0,-999.0,1,-99.99,,,0.00,Acu-Link.com,2013-07-22 11:11:00,
2013-07-22 06:26:00,75.7,-31.4,29.71,East,90,0.0,-999.0,1,-99.99,,,0.00,Acu-Link.com,2013-07-22 11:26:00,
2013-07-22 06:42:00,75.7,-31.4,29.71,East,90,0.0,-999.0,1,-99.99,,,0.00,Acu-Link.com,2013-07-22 11:42:00,
2013-07-22 06:57:00,76.8,-30.7,29.71,ESE,112,0.0,-999.0,1,-99.99,,,0.00,Acu-Link.com,2013-07-22 11:57:00,
2013-07-22 07:12:00,78.4,-29.8,29.72,SSE,157,3.2,-999.0,1,-99.99,,,0.00,Acu-Link.com,2013-07-22 12:12:00,
2013-07-22 07:27:00,80.2,59.9,29.72,SSE,157,1.7,-999.0,50,-99.99,,,0.00,Acu-Link.com,2013-07-22 12:27:00,
2013-07-22 07:43:00,82.0,-27.7,29.72,SSE,157,2.2,-999.0,1,-99.99,,,0.00,Acu-Link.com,2013-07-22 12:43:00,
2013-07-22 07:58:00,84.4,-26.2,29.73,South,180,3.2,-999.0,1,-99.99,,,0.00,Acu-Link.com,2013-07-22 12:58:00,
2013-07-22 08:13:00,86.0,-25.3,29.73,South,180,2.2,-999.0,1,-99.99,,,0.00,Acu-Link.com,2013-07-22 13:13:00,
2013-07-22 08:28:00,87.6,-24.3,29.75,South,180,4.7,-999.0,1,-99.99,,,0.00,Acu-Link.com,2013-07-22 13:28:00,
2013-07-22 08:44:00,88.9,-23.6,29.74,SSE,157,4.2,-999.0,1,-99.99,,,0.00,Acu-Link.com,2013-07-22 13:44:00,
2013-07-22 08:59:00,88.0,-24.1,29.75,South,180,3.7,-999.0,1,-99.99,,,0.00,Acu-Link.com,2013-07-22 13:59:00,
2013-07-22 09:14:00,89.6,-23.2,29.74,SSE,157,2.2,-999.0,1,-99.99,,,0.00,Acu-Link.com,2013-07-22 14:14:00,
2013-07-22 09:29:00,87.1,-24.6,29.74,SW,225,5.8,-999.0,1,-99.99,,,0.00,Acu-Link.com,2013-07-22 14:29:00,
2013-07-22 09:44:00,89.4,-23.3,29.75,South,180,4.7,-999.0,1,-99.99,,,0.00,Acu-Link.com,2013-07-22 14:44:00,
2013-07-22 10:00:00,89.8,-23.0,29.74,SSW,202,6.3,-999.0,1,-99.99,,,0.00,Acu-Link.com,2013-07-22 15:00:00,
2013-07-22 10:15:00,89.4,-23.3,29.74,SW,225,5.3,-999.0,1,-99.99,,,0.00,Acu-Link.com,2013-07-22 15:15:00,
2013-07-22 10:30:00,91.6,-22.0,29.74,South,180,4.7,-999.0,1,-99.99,,,0.00,Acu-Link.com,2013-07-22 15:30:00,
2013-07-22 10:45:00,91.2,-22.2,29.74,SSW,202,4.2,-999.0,1,-99.99,,,0.00,Acu-Link.com,2013-07-22 15:45:00,
2013-07-22 11:00:00,93.4,-20.9,29.75,SSW,202,3.7,-999.0,1,-99.99,,,0.00,Acu-Link.com,2013-07-22 16:00:00,
2013-07-22 11:15:00,91.9,-21.8,29.75,SW,225,6.8,-999.0,1,-99.99,,,0.00,Acu-Link.com,2013-07-22 16:15:00,
2013-07-22 11:30:00,88.5,-23.8,29.74,SW,225,3.7,-999.0,1,-99.99,,,0.00,Acu-Link.com,2013-07-22 16:30:00,
2013-07-22 11:45:00,89.2,-23.4,29.74,West,270,5.3,-999.0,1,-99.99,,,0.03,Acu-Link.com,2013-07-22 16:45:00,
2013-07-22 12:01:00,90.1,-22.9,29.74,SSW,202,3.7,-999.0,1,-99.99,,,0.04,Acu-Link.com,2013-07-22 17:01:00,
2013-07-22 12:16:00,91.9,-21.8,29.74,SSW,202,7.8,-999.0,1,-99.99,,,0.04,Acu-Link.com,2013-07-22 17:16:00,
2013-07-22 12:31:00,92.7,-21.3,29.73,SSW,202,4.7,-999.0,1,-99.99,,,0.04,Acu-Link.com,2013-07-22 17:31:00,
2013-07-22 12:46:00,95.7,-19.6,29.72,SW,225,8.3,-999.0,1,-99.99,,,0.04,Acu-Link.com,2013-07-22 17:46:00,
2013-07-22 13:01:00,95.7,-19.6,29.72,SW,225,4.2,-999.0,1,-99.99,,,0.04,Acu-Link.com,2013-07-22 18:01:00,
2013-07-22 14:18:00,89.4,-23.3,29.71,SSE,157,6.8,-999.0,1,-99.99,,,0.04,Acu-Link.com,2013-07-22 19:18:00,
2013-07-22 14:48:00,89.6,-23.2,29.71,South,180,5.3,-999.0,1,-99.99,,,0.04,Acu-Link.com,2013-07-22 19:48:00,
2013-07-22 15:03:00,92.7,-21.3,29.70,SSE,157,4.2,-999.0,1,-99.99,,,0.04,Acu-Link.com,2013-07-22 20:03:00,
2013-07-22 15:18:00,94.3,-20.4,29.69,SSW,202,5.3,-999.0,1,-99.99,,,0.04,Acu-Link.com,2013-07-22 20:18:00,
2013-07-22 15:34:00,95.2,-19.9,29.68,SSW,202,8.3,-999.0,1,-99.99,,,0.04,Acu-Link.com,2013-07-22 20:34:00,
2013-07-22 15:49:00,95.2,-19.9,29.68,WSW,247,6.3,-999.0,1,-99.99,,,0.04,Acu-Link.com,2013-07-22 20:49:00,
2013-07-22 16:04:00,95.0,-20.0,29.68,SW,225,8.3,-999.0,1,-99.99,,,0.04,Acu-Link.com,2013-07-22 21:04:00,
2013-07-22 16:19:00,94.8,-20.1,29.68,SW,225,8.3,-999.0,1,-99.99,,,0.04,Acu-Link.com,2013-07-22 21:19:00,
2013-07-22 16:34:00,95.2,-19.9,29.69,SW,225,6.3,-999.0,1,-99.99,,,0.04,Acu-Link.com,2013-07-22 21:34:00,
2013-07-22 16:49:00,95.0,-20.0,29.68,SSW,202,7.8,-999.0,1,-99.99,,,0.04,Acu-Link.com,2013-07-22 21:49:00,
2013-07-22 17:05:00,94.8,-20.1,29.69,SW,225,8.3,-999.0,1,-99.99,,,0.04,Acu-Link.com,2013-07-22 22:05:00,
2013-07-22 17:20:00,94.8,-20.1,29.68,South,180,6.8,-999.0,1,-99.99,,,0.04,Acu-Link.com,2013-07-22 22:20:00,
2013-07-22 17:35:00,94.6,-20.2,29.68,South,180,10.4,-999.0,1,-99.99,,,0.04,Acu-Link.com,2013-07-22 22:35:00,
2013-07-22 17:50:00,93.2,-21.0,29.67,South,180,3.2,-999.0,1,-99.99,,,0.04,Acu-Link.com,2013-07-22 22:50:00,
2013-07-22 18:06:00,92.8,-21.3,29.67,South,180,4.7,-999.0,1,-99.99,,,0.04,Acu-Link.com,2013-07-22 23:06:00,
2013-07-22 18:21:00,91.2,-22.2,29.67,South,180,6.3,-999.0,1,-99.99,,,0.04,Acu-Link.com,2013-07-22 23:21:00,
2013-07-22 18:36:00,90.9,-22.4,29.67,SSE,157,9.9,-999.0,1,-99.99,,,0.04,Acu-Link.com,2013-07-22 23:36:00,
2013-07-22 18:52:00,90.3,-22.7,29.68,SSW,202,6.8,-999.0,1,-99.99,,,0.04,Acu-Link.com,2013-07-22 23:52:00,
2013-07-22 19:07:00,89.8,-23.0,29.68,SW,225,6.3,-999.0,1,-99.99,,,0.04,Acu-Link.com,2013-07-23 00:07:00,
2013-07-22 19:22:00,89.1,-23.5,29.69,SSW,202,5.3,-999.0,1,-99.99,,,0.04,Acu-Link.com,2013-07-23 00:22:00,
2013-07-22 19:37:00,88.0,-24.1,29.69,SSW,202,5.3,-999.0,1,-99.99,,,0.04,Acu-Link.com,2013-07-23 00:37:00,
2013-07-22 19:53:00,86.5,-25.0,29.69,SW,225,2.7,-999.0,1,-99.99,,,0.04,Acu-Link.com,2013-07-23 00:53:00,
2013-07-22 20:08:00,85.5,-25.6,29.68,SW,225,9.9,-999.0,1,-99.99,,,0.04,Acu-Link.com,2013-07-23 01:08:00,
2013-07-22 20:23:00,84.7,-26.1,29.68,SW,225,4.7,-999.0,1,-99.99,,,0.04,Acu-Link.com,2013-07-23 01:23:00,
2013-07-22 20:38:00,84.2,-26.3,29.68,SSW,202,9.9,-999.0,1,-99.99,,,0.04,Acu-Link.com,2013-07-23 01:38:00,
2013-07-22 20:54:00,83.7,-26.6,29.68,South,180,3.7,-999.0,1,-99.99,,,0.04,Acu-Link.com,2013-07-23 01:54:00,
2013-07-22 21:13:00,83.1,-27.0,29.69,SSW,202,4.7,-999.0,1,-99.99,,,0.04,Acu-Link.com,2013-07-23 02:13:00,
2013-07-22 21:42:00,82.2,-27.5,29.70,SSW,202,4.2,-999.0,1,-99.99,,,0.04,Acu-Link.com,2013-07-23 02:42:00,
2013-07-22 22:07:00,81.9,-27.7,29.72,SSW,202,3.7,-999.0,1,-99.99,,,0.04,Acu-Link.com,2013-07-23 03:07:00,
2013-07-22 22:22:00,81.5,-27.9,29.71,SSE,157,2.2,-999.0,1,-99.99,,,0.04,Acu-Link.com,2013-07-23 03:22:00,
2013-07-22 22:38:00,81.0,-28.2,29.71,South,180,4.7,-999.0,1,-99.99,,,0.04,Acu-Link.com,2013-07-23 03:38:00,
2013-07-22 23:04:00,80.4,-28.6,29.72,SW,225,2.2,-999.0,1,-99.99,,,0.04,Acu-Link.com,2013-07-23 04:04:00,
2013-07-22 23:55:00,80.1,-28.8,29.72,SSE,157,2.2,-999.0,1,-99.99,,,0.04,Acu-Link.com,2013-07-23 04:55:00,